CAPE
9 0 74 37 179 202 286 409 643 678 702 687 696 570 678 472 150 0 914 856 706 581 752 838 940 887 963 1240 1464 1540 1618 1697 1548 1361 1238 1118 1000 977 941 964 1132 1020 1031 1039 952 934 938 1043 1016 1053 1263 1321 1434 1590 1697 1706 1854 1847 1912 1873 1742 1586 1536 1655 1691 1620 1102 1129 1154 2020 2121 1612 1520 1330 1119 1123 1289 1322 1399 1464 1426 1370 1304 1436 1496 1593 1635
2 3 203 161 72 330 478 522 642 716 707 712 655 680 816 881 676 907 932 766 524 614 662 761 984 1066 1168 1248 1402 1480 1487 1522 1560 1543 1429 1253 1126 993 978 985 978 1058 1123 1134 891 1038 871 800 755 883 1056 1252 1250 1131 1190 1071 1066 1081 1283 1269 1317 1172 1198 1190 1402 1199 1095 1256 1450 1955 1734 1442 1279 1073 919 734 652 825 879 1150 1307 1341 1313 1300 1370 1700 1844
114 164 128 80 314 347 519 666 789 756 746 729 696 672 992 1089 950 963 950 857 514 591 666 552 1041 1086 1377 1407 1448 1501 1491 1429 1383 1162 1131 1270 1252 1142 884 875 886 1102 1084 1150 1043 950 944 871 792 764 1078 1064 808 689 688 778 846 954 1080 1147 1184 1140 1090 1220 2066 2170 1868 1486 1519 1786 1720 1593 1213 959 743 718 698 729 659 735 932 1108 1163 1166 1085 1455 1776
176 102 45 149 265 45 86 447 685 805 768 728 697 706 552 835 1000 841 835 626 527 722 970 999 1165 1277 1136 1223 1304 1443 1385 1226 1258 1218 1230 951 1193 1172 1100 835 789 847 1014 1062 947 860 765 591 748 932 657 752 830 835 1071 1177 1135 1264 1447 1586 1518 1537 1740 2024 2369 1964 1848 1842 1757 1788 1840 1578 1563 1400 1014 789 851 856 822 807 811 712 835 853 937 1012 1363
24 94 68 59 42 136 22 280 510 851 732 660 578 599 508 516 524 713 616 426 538 666 807 901 1226 1389 1278 1201 1183 1153 1062 976 1009 1005 1035 1015 954 1133 981 833 845 851 853 875 769 747 706 582 682 1036 1172 874 693 1061 1523 1522 1489 1435 1340 1439 1782 1852 1821 2095 1890 2020 2233 2119 1996 1974 1960 1757 1734 1762 1568 1247 1018 1275 1266 1377 1423 617 527 530 588 669 830
0 5 46 26 5 0 2 313 561 822 744 705 651 554 540 430 458 345 339 473 448 500 615 570 710 714 765 915 893 814 649 698 771 766 720 777 723 770 640 706 937 983 912 758 750 587 572 617 684 1221 1279 1170 1079 855 1068 1143 1431 1568 1475 1158 1371 1891 1700 1747 2136 1920 2066 2020 1975 1940 1830 1759 1594 1768 1940 1912 1614 1817 1916 1822 1438 996 679 604 624 605 700
0 0 12 20 9 105 23 203 618 941 866 768 688 627 564 446 549 554 385 123 145 364 457 540 678 720 572 600 614 576 651 658 654 676 726 759 539 508 584 762 917 916 982 885 838 766 717 922 878 936 1124 1077 960 1198 1173 1428 1613 1657 1584 1362 1216 1426 1535 1514 1515 1647 1650 1971 2186 2284 2050 1729 1432 1564 1715 1873 1891 1892 1785 1638 1572 1268 1182 912 842 889 1026
0 0 35 13 94 125 56 274 80 350 839 649 471 431 443 469 361 334 286 315 423 464 495 486 437 298 300 518 560 661 743 799 703 642 592 504 459 348 341 431 492 576 729 790 916 848 830 704 509 881 893 886 943 879 891 842 686 756 718 668 1290 1068 1093 1087 1079 1098 1219 1362 1545 1543 1771 1838 1740 1714 1732 1699 1717 1847 1920 1789 1579 1447 1365 1258 1259 1148 959
76 167 90 189 179 110 104 59 34 19 51 233 374 381 406 423 402 317 290 268 348 453 646 502 470 302 252 535 707 667 665 541 566 522 405 330 318 327 266 364 376 524 469 629 804 816 573 601 672 676 688 718 833 826 698 712 663 736 883 1005 929 1057 1147 1180 1096 1032 985 1044 1061 979 1035 1453 1671 1635 1719 1930 1695 1821 1837 1891 1867 1702 1569 1426 1391 1336 1243
213 246 5 30 52 139 116 44 46 26 66 418 464 522 321 402 333 291 286 272 304 323 362 400 414 395 223 188 356 396 475 413 344 352 333 328 368 369 329 338 373 476 610 475 580 656 883 888 550 413 502 552 487 691 702 694 700 678 749 867 986 1016 1215 1116 1073 1132 1154 1138 1081 972 940 713 747 840 1298 1776 1809 1804 1719 1596 1687 1791 1727 1714 1584 1492 1435
44 4 0 0 1 286 65 14 26 28 356 449 486 186 249 364 506 300 292 306 310 336 228 218 211 172 107 19 46 156 177 66 1 10 3 0 158 146 45 236 307 293 344 355 480 500 425 508 412 300 177 279 375 382 462 607 626 650 575 737 835 856 841 830 908 973 988 966 995 901 1110 1030 1007 1126 1215 1301 1318 1470 1588 1544 1460 1208 1161 1186 1240 1372 1341
35 103 0 0 403 396 178 169 384 405 710 64 0 0 15 253 373 351 398 324 382 292 171 120 150 83 120 154 133 148 6 26 26 5 0 36 0 0 17 62 30 3 1 18 273 176 136 172 157 116 173 188 207 11 302 428 503 528 605 643 654 662 673 660 634 666 517 394 510 686 963 1065 1113 1129 1109 1078 1071 1192 1236 1226 1100 950 881 851 864 877 895
444 293 332 254 270 354 232 202 447 452 688 200 11 1 236 436 416 422 486 440 333 236 170 92 122 113 188 175 170 202 2 0 104 0 0 0 0 0 0 0 0 0 0 15 0 0 0 0 0 100 0 0 0 50 0 104 263 360 470 541 563 564 607 585 537 466 456 464 482 467 476 503 606 685 727 790 889 950 955 1005 972 820 827 855 797 780 640
204 208 298 295 323 284 287 444 535 571 375 4 10 348 632 864 702 406 248 234 263 263 212 189 196 222 164 253 312 140 62 0 0 0 0 0 0 0 0 0 0 0 0 0 0 0 0 0 0 82 129 163 202 274 365 415 370 326 406 467 441 431 395 385 415 446 441 401 378 361 363 367 414 446 478 501 538 640 824 901 865 760 727 755 782 706 626
293 273 273 350 416 524 424 414 353 476 309 239 670 760 870 838 618 246 149 306 310 266 257 229 227 159 185 127 63 51 18 0 0 0 0 0 0 0 0 0 0 0 0 0 0 0 0 0 0 0 0 0 0 0 58 203 270 312 334 371 318 346 371 297 404 415 371 333 331 327 352 369 367 347 328 400 450 486 534 553 563 599 573 575 636 651 616
275 184 322 394 326 510 532 455 432 602 584 900 973 918 928 854 772 595 234 262 327 275 265 236 211 192 116 62 10 3 28 27 0 0 0 0 0 0 0 0 0 0 0 0 0 64 85 57 0 0 0 0 0 20 3 0 94 164 192 232 254 240 260 263 272 255 299 316 295 295 289 301 337 337 322 293 262 288 323 362 459 501 526 469 411 389 468
346 374 369 384 534 660 696 808 894 1078 1099 1102 1052 996 917 854 779 724 619 379 64 267 227 67 131 197 152 141 85 72 83 9 0 0 0 0 0 0 0 0 0 0 0 0 0 0 102 95 30 0 0 0 0 0 0 0 23 97 129 146 173 186 171 184 211 234 225 242 266 292 297 292 297 303 297 280 244 203 175 162 10 66 249 278 298 316 313
387 420 485 548 662 742 792 950 1060 1101 1162 1203 1108 1025 986 832 735 745 684 489 80 33 5 24 31 61 188 175 202 218 40 4 0 0 0 0 0 0 0 0 0 0 0 0 0 0 0 0 0 0 0 0 0 0 0 0 0 0 39 58 60 82 117 135 147 152 170 183 198 225 245 257 252 245 241 231 202 129 98 103 143 132 0 0 0 0 0
382 338 427 514 530 626 818 1038 1150 1200 1216 1238 1193 1089 992 831 702 715 703 492 221 156 90 42 58 74 83 233 246 182 28 14 1 0 0 0 0 0 0 0 0 0 0 0 0 0 0 0 0 0 0 0 0 0 0 0 0 0 18 50 61 51 9 11 48 73 80 102 131 150 178 206 232 233 204 175 121 12 0 0 42 98 97 70 0 0 0
260 404 301 360 451 575 782 918 1038 1174 1189 1202 1213 1111 1010 877 766 670 646 589 483 399 298 93 147 216 302 304 296 90 26 10 0 0 0 0 0 0 0 0 0 0 0 0 0 0 0 0 0 0 0 0 0 0 0 0 0 0 2 22 26 50 38 0 50 56 74 84 97 110 146 168 176 178 154 103 66 0 0 0 7 37 79 101 92 71 26
347 318 339 433 485 416 411 695 1017 1134 1093 1041 1146 1183 1091 918 797 749 594 566 550 515 419 528 508 470 415 353 306 239 38 0 0 0 0 0 0 0 0 0 0 0 0 0 0 0 0 0 0 0 0 0 0 0 0 0 0 0 33 58 0 0 0 0 0 42 32 0 0 0 0 0 3 2 3 2 2 0 0 0 0 0 0 42 78 84 74
342 380 402 377 328 284 148 405 722 934 956 928 875 788 724 722 781 785 800 752 624 508 623 612 572 505 439 384 299 159 90 50 1 0 0 0 0 0 0 0 0 0 0 0 0 0 0 0 0 0 0 0 0 0 0 0 0 0 0 0 0 0 0 0 0 0 0 0 0 0 0 0 0 0 1 0 0 0 0 0 0 0 0 0 0 7 26
288 314 318 301 297 291 294 307 425 553 571 604 636 653 602 553 552 648 724 720 659 533 472 554 501 487 500 471 353 280 212 149 97 5 0 0 0 0 0 0 0 0 0 0 0 0 0 0 0 0 0 0 0 0 0 0 0 0 0 0 0 0 0 0 0 0 0 0 0 0 0 0 0 0 0 0 0 0 0 0 0 0 0 0 0 0 0
246 310 271 0 139 348 395 429 452 172 0 0 155 460 502 449 408 396 500 654 695 608 543 518 509 502 486 465 511 466 369 312 281 126 15 0 0 0 0 0 0 0 0 0 0 0 0 0 0 0 0 0 0 0 0 0 0 0 0 0 0 0 0 0 0 0 0 0 0 0 0 0 0 0 0 0 0 0 0 0 0 0 0 0 0 0 0
515 402 14 4 20 27 272 14 5 0 0 0 0 0 0 0 0 0 355 437 521 650 653 569 475 410 413 437 482 544 530 571 479 398 292 285 138 10 0 0 0 0 0 0 0 0 0 0 0 0 0 0 0 0 0 0 0 0 0 0 0 0 0 6 5 0 0 0 0 0 0 0 0 0 0 0 0 0 0 0 0 0 0 0 0 0 0
559 159 5 0 0 4 14 3 0 0 0 0 0 30 440 216 28 3 0 0 73 68 314 345 400 464 541 535 418 356 419 515 867 692 454 468 398 302 99 35 18 0 0 0 0 0 0 0 0 0 0 0 0 0 0 0 0 0 0 0 0 0 0 0 0 0 0 0 0 0 0 0 0 0 0 0 0 0 0 0 0 0 0 0 0 0 0
96 10 0 0 5 5 7 21 9 0 0 0 0 0 0 596 663 0 0 0 0 0 0 0 164 250 206 330 617 615 740 882 862 670 679 637 538 469 460 390 317 255 82 0 0 1 19 4 0 0 0 0 0 0 0 0 0 0 0 0 0 0 0 6 0 0 0 0 0 0 0 0 0 1 0 0 0 0 0 0 0 0 0 0 0 0 0
29 6 2 2 0 1 0 0 0 0 0 0 0 0 0 0 0 0 0 0 0 0 0 0 0 0 0 0 0 0 0 425 638 575 547 598 623 580 537 526 576 452 407 349 296 241 26 6 0 0 0 0 0 0 0 0 0 0 0 0 0 0 0 0 0 0 0 0 0 0 0 0 0 0 3 8 0 0 0 0 0 0 0 0 0 0 0
150 163 44 0 0 0 0 0 0 0 0 0 0 0 0 0 0 0 0 0 0 0 0 0 34 5 0 0 0 128 75 71 77 270 365 383 477 526 439 362 423 469 435 396 332 288 244 221 85 0 0 0 0 0 0 0 0 0 0 0 0 0 0 0 0 0 0 0 0 0 0 0 0 0 0 0 4 1 0 0 0 0 0 0 0 0 0
30 1 26 4 0 0 0 0 0 0 0 0 0 0 0 0 0 0 0 0 0 0 0 0 0 0 0 0 0 0 0 0 0 89 167 166 179 314 420 424 293 88 126 362 376 366 368 302 287 266 258 190 178 0 0 0 0 0 0 0 0 0 0 0 0 0 0 0 0 0 0 0 0 0 19 0 0 0 0 0 0 0 0 0 0 0 0
3 0 0 0 0 0 0 0 0 0 0 0 0 0 0 0 0 0 0 0 0 0 0 0 0 0 0 0 0 0 0 0 0 0 0 0 0 0 119 510 400 330 286 258 303 282 275 278 235 256 275 231 213 218 135 0 0 0 0 0 0 0 0 0 0 0 0 0 0 0 0 0 0 4 0 0 0 0 0 0 0 0 0 0 0 0 0
32 16 0 0 0 0 0 0 0 0 0 0 0 0 0 0 0 0 0 0 0 0 0 0 0 0 0 0 0 0 0 0 0 0 0 0 0 0 0 95 433 576 509 461 394 333 165 31 205 259 218 210 195 184 157 0 0 0 0 0 0 0 0 0 0 0 0 0 10 0 4 0 0 0 16 0 0 0 0 0 0 0 0 0 0 0 0
172 24 0 0 82 0 46 0 0 0 0 0 0 0 0 0 0 0 0 0 0 0 0 0 0 0 0 0 0 0 0 0 0 0 0 0 0 0 39 484 515 586 543 492 421 355 310 286 278 38 183 224 194 0 0 0 0 0 0 0 0 0 0 0 0 0 0 8 3 0 0 62 14 28 1 0 0 0 0 0 0 0 0 0 0 0 0
12 5 0 0 0 0 0 0 0 0 0 0 0 0 0 0 0 0 0 0 0 0 0 0 0 0 0 0 0 0 0 0 0 0 0 0 0 0 0 0 18 112 199 249 332 309 0 0 0 0 0 0 0 0 38 125 0 0 17 4 0 0 0 0 0 0 0 3 2 7 5 2 0 0 0 0 0 0 0 0 0 0 0 0 0 0 0
0 0 0 0 0 0 0 0 0 0 0 0 0 0 0 0 0 0 0 0 0 0 0 0 0 0 0 0 0 0 0 0 0 0 0 0 0 0 0 0 0 3 51 171 275 247 66 0 0 121 185 0 0 0 0 151 157 64 110 62 0 0 0 0 0 0 0 4 5 0 0 0 0 0 0 0 0 0 0 0 0 0 0 0 0 0 0
0 0 0 0 0 0 0 0 0 0 0 0 0 0 0 0 0 0 0 0 0 0 0 0 0 0 0 0 0 0 0 0 0 0 0 0 0 0 0 0 0 0 0 0 172 268 375 450 545 663 483 356 283 46 1 0 139 133 0 0 0 0 0 0 0 0 10 0 0 0 0 2 0 0 0 0 0 0 0 0 0 0 0 0 0 0 0
0 0 0 0 0 0 0 0 0 0 0 0 0 0 0 0 0 0 0 0 0 0 0 0 0 0 0 0 0 0 0 0 0 0 0 0 0 0 0 0 0 0 3 0 13 0 42 61 689 639 470 335 290 184 18 336 0 0 4 7 0 0 0 0 0 1 3 0 0 0 4 7 0 0 3 0 0 0 0 0 0 0 0 0 0 0 0
0 0 0 0 0 0 0 0 0 0 0 0 0 0 0 0 0 0 0 0 0 0 0 0 0 0 0 0 0 0 0 0 0 0 0 0 0 0 0 0 0 0 0 23 3 1 0 9 74 462 269 338 348 304 272 472 265 174 164 131 1 2 3 0 0 0 0 0 0 0 0 0 0 0 0 0 0 0 0 0 0 0 0 0 0 0 0
0 0 0 0 0 0 0 0 0 0 0 0 0 0 0 0 0 0 0 0 0 0 0 0 0 0 0 0 0 0 0 0 0 0 0 0 0 0 0 0 0 0 20 43 0 0 2 7 3 1 0 0 0 0 43 374 522 206 35 4 3 0 0 0 0 0 0 0 0 4 2 0 0 0 0 0 0 0 3 2 0 0 0 0 0 0 0
0 0 0 0 0 0 0 0 0 0 0 0 0 0 0 0 0 0 0 0 0 0 0 0 0 0 0 0 0 0 0 0 0 0 0 0 0 0 0 0 53 53 140 120 10 0 21 68 88 0 0 0 0 0 2 102 402 254 6 0 0 0 0 0 0 0 0 0 0 2 0 0 0 2 0 0 0 0 0 0 0 0 0 0 0 0 0
0 0 0 0 0 0 0 0 0 0 0 0 0 0 0 0 0 0 0 0 0 0 0 0 0 0 0 0 0 0 0 0 0 0 0 0 0 0 0 0 8 19 13 1 3 15 16 48 13 0 0 0 0 3 0 106 283 256 162 0 0 0 0 0 0 5 0 0 0 0 0 0 0 0 0 0 0 0 0 0 0 0 0 0 0 0 0
0 0 0 0 0 0 0 0 0 0 0 0 0 0 0 0 0 0 0 0 0 0 0 0 20 3 0 0 0 0 0 0 0 0 0 0 0 0 0 0 0 5 50 77 44 29 0 0 18 120 149 133 116 80 76 49 189 226 162 87 97 95 5 26 75 0 0 0 0 0 0 0 0 1 2 1 0 0 0 0 0 0 0 0 0 0 0
0 0 0 0 0 0 0 0 0 0 0 0 0 0 0 0 0 0 0 0 0 0 0 0 0 1 0 0 0 0 0 0 0 0 0 0 0 0 0 0 0 0 103 107 122 91 41 0 0 0 19 160 211 210 203 186 191 207 176 140 111 112 118 118 2 93 30 0 0 0 0 0 2 3 2 0 0 0 0 0 0 0 0 0 0 0 0
0 0 0 0 0 0 0 0 0 0 0 0 0 0 0 0 0 0 0 0 0 0 0 0 0 0 0 0 0 0 0 0 0 0 0 0 0 0 0 0 0 37 85 41 6 0 0 0 0 25 146 111 45 182 189 202 214 218 185 152 128 109 95 60 21 45 41 16 8 15 14 5 1 2 0 0 1 1 0 0 0 0 0 0 0 0 0
0 0 0 0 0 0 0 0 0 0 0 0 0 0 0 0 0 0 0 0 0 0 0 0 0 0 0 0 0 0 0 0 0 0 0 0 0 0 0 0 0 0 4 5 0 0 0 0 0 17 50 91 92 58 106 77 64 104 92 19 27 20 10 72 4 10 12 6 3 8 6 6 0 0 0 0 0 2 3 4 4 0 0 0 0 0 0
0 0 0 0 0 0 0 0 0 0 0 0 0 0 0 0 0 0 0 0 0 0 0 0 0 0 0 0 0 0 0 0 0 0 0 0 0 0 0 0 0 0 0 0 0 1 3 2 2 0 0 3 19 20 17 2 2 40 24 26 22 28 20 16 4 6 2 4 2 2 0 0 0 1 2 3 2 5 7 4 2 0 0 0 0 0 0
0 0 0 0 0 0 0 0 0 0 0 0 0 0 0 0 0 0 0 0 0 0 0 0 0 0 2 3 0 0 0 0 0 0 0 0 0 0 0 0 1 0 0 0 0 0 1 2 2 1 0 0 0 1 2 9 5 0 2 5 6 0 1 4 0 0 0 3 4 7 6 4 3 3 4 4 6 8 6 4 3 1 0 0 0 0 0
0 0 0 0 0 0 0 0 0 0 0 0 0 0 0 0 0 0 0 0 0 0 0 0 0 2 4 2 2 0 0 0 0 0 0 1 0 0 0 0 1 0 0 0 0 0 0 0 0 0 0 0 0 0 0 0 0 3 1 0 0 0 0 0 0 0 2 1 0 0 1 0 0 3 6 8 8 6 5 3 1 0 0 0 0 0 0
0 0 0 0 0 0 0 0 0 0 0 0 0 0 0 0 0 0 0 0 0 0 0 0 0 0 0 4 0 0 0 0 0 0 1 0 0 0 0 16 10 4 0 1 0 0 0 0 0 0 0 0 0 0 0 0 0 0 0 0 0 0 0 0 0 0 2 3 3 2 1 0 0 0 0 0 0 0 0 0 0 0 0 0 0 0 0
0 0 0 0 0 0 0 0 0 0 0 0 0 0 0 0 0 0 0 0 0 0 0 0 0 0 0 0 0 0 0 0 0 0 0 0 0 0 3 1 6 1 0 0 0 0 0 0 0 0 0 0 0 0 0 0 1 0 0 1 0 0 0 0 0 2 5 7 3 0 0 0 0 0 0 0 0 0 0 0 0 0 0 0 0 0 0
0 0 0 0 0 0 0 0 0 0 0 0 0 0 0 0 0 0 0 0 0 0 0 0 0 0 0 0 0 0 0 0 3 3 0 0 0 6 5 12 3 0 0 0 0 0 0 0 0 1 2 3 0 1 4 7 6 6 5 5 5 4 3 3 4 4 3 2 1 0 0 0 0 0 0 0 0 0 0 0 0 0 0 0 0 0 1
0 0 0 0 0 0 0 0 0 0 0 0 0 0 0 0 0 0 0 1 0 0 0 0 0 0 0 0 0 0 0 0 0 0 0 0 0 0 0 0 0 0 0 0 0 0 0 0 0 0 1 3 3 3 2 1 1 3 5 5 5 5 3 1 0 0 0 0 0 1 2 0 0 0 0 0 0 0 0 0 0 0 2 0 0 0 1
Wind_Speed
nan nan nan nan 45 48 48 53 52 50 49 51 46 40 37 33 29 nan 32 44 41 37 39 39 39 35 33 32 30 27 23 20 19 23 28 28 28 27 27 25 25 26 31 40 43 42 46 49 44 43 46 49 48 49 48 43 38 32 29 28 27 26 25 24 21 20 19 19 20 23 23 25 26 26 23 20 19 18 20 18 18 18 18 18 18 17 18
nan nan 35 34 nan 45 53 55 52 47 47 47 46 42 39 37 37 35 36 42 43 40 40 42 41 37 35 33 31 31 29 24 22 25 28 28 27 25 24 22 23 27 29 33 35 35 38 43 45 44 42 42 43 43 41 40 39 39 37 33 30 29 27 25 24 22 20 20 23 26 24 25 25 24 24 24 25 25 23 21 22 22 22 22 21 19 19
22 31 35 nan 37 44 51 51 53 51 46 48 48 47 47 43 36 42 44 46 44 41 39 38 38 38 37 38 38 36 34 31 28 26 24 23 26 24 21 20 21 23 24 26 29 32 34 40 41 40 38 36 36 37 36 37 35 32 32 31 33 35 33 28 27 25 25 24 26 27 25 24 23 23 23 23 25 26 26 26 24 23 23 23 23 22 21
18 26 nan 29 29 nan nan 50 54 53 50 51 49 48 44 42 42 43 45 48 43 42 39 37 39 38 37 37 37 36 33 30 29 29 27 25 25 22 20 20 21 23 24 24 25 30 32 36 38 39 38 34 32 31 34 38 36 34 33 30 31 33 34 34 32 30 29 28 28 28 28 26 24 22 22 23 24 25 25 24 23 23 24 23 23 23 23
nan nan nan nan nan 35 nan 48 51 48 46 44 48 48 51 48 41 42 41 38 39 37 37 38 40 40 39 39 37 35 33 30 28 27 25 26 24 21 22 24 26 28 29 29 31 33 33 34 35 36 36 35 31 30 35 36 34 34 32 29 29 31 32 33 34 33 31 30 30 31 31 28 26 24 24 24 24 24 24 21 22 23 22 23 23 22 23
nan nan nan nan nan nan nan 35 48 46 45 48 51 49 50 50 48 41 37 35 34 35 37 38 37 39 41 38 33 33 34 34 33 33 33 31 28 26 27 28 29 31 33 35 37 39 39 39 37 36 35 32 32 34 36 36 34 32 31 29 29 31 34 36 36 32 32 33 34 33 31 30 29 29 28 26 25 25 25 23 22 21 21 20 21 21 22
nan nan nan nan nan 27 nan 30 40 47 47 47 48 48 50 46 45 45 45 43 42 40 41 39 37 37 39 42 44 40 39 39 37 37 36 36 34 32 31 31 30 30 32 32 32 34 35 37 37 37 35 33 33 35 33 33 33 32 30 26 25 27 30 33 33 30 26 26 26 26 25 26 29 30 30 28 26 26 27 26 24 22 20 20 20 20 22
nan nan nan nan nan 22 nan 25 nan 43 45 44 47 49 48 45 41 40 41 42 43 42 41 37 32 35 34 36 42 43 42 42 42 38 36 36 35 33 30 31 29 29 30 30 31 33 34 37 38 37 36 34 35 35 35 34 34 34 30 26 23 23 23 26 31 30 27 26 27 28 27 28 31 33 31 30 29 28 28 29 27 26 25 25 25 25 25
nan 14 nan 17 18 21 27 nan nan nan nan 41 39 40 44 43 40 40 41 44 45 44 38 30 25 28 34 36 32 37 39 40 40 39 39 37 36 34 33 30 29 28 28 31 36 35 34 36 38 38 37 35 33 33 32 30 29 29 27 25 23 22 21 22 26 27 26 26 26 26 26 27 29 31 29 29 28 29 30 29 29 28 29 31 31 30 30
14 15 nan nan nan 18 15 nan nan nan nan 39 37 42 40 42 42 41 42 43 42 43 41 35 28 25 32 28 22 26 32 34 35 35 34 34 33 33 34 34 33 32 31 32 36 39 39 37 37 34 32 29 29 30 29 28 27 23 20 19 18 18 20 21 21 23 25 25 24 20 21 22 22 23 23 24 25 28 29 31 31 32 34 34 31 30 31
nan nan nan nan nan 15 nan nan nan nan 29 32 37 45 43 41 42 42 42 42 42 40 39 41 36 31 28 nan nan 17 22 nan nan nan nan nan 33 33 nan 34 35 35 33 33 35 38 38 36 33 33 32 31 30 30 29 27 25 23 22 19 17 17 19 18 18 20 22 22 18 14 16 18 18 17 17 19 23 25 27 28 31 34 35 35 29 23 27
nan 15 nan nan 14 14 15 15 17 18 22 nan nan nan nan 40 41 42 44 43 42 41 41 40 41 nan 40 26 14 16 nan nan nan nan nan nan nan nan nan nan nan nan nan nan 39 41 40 36 35 34 31 31 31 nan 29 29 30 29 25 21 19 19 18 17 17 17 18 18 16 15 14 16 18 19 18 19 20 20 23 26 29 31 31 32 30 27 27
14 18 14 15 15 14 13 14 15 17 20 27 nan nan 29 34 28 35 43 44 42 41 40 nan 44 43 42 33 22 18 nan nan 21 nan nan nan nan nan nan nan nan nan nan nan nan nan nan nan nan 32 nan nan nan nan nan 35 34 30 22 18 19 21 21 20 21 20 18 16 17 17 18 19 20 22 22 22 22 22 24 26 30 32 33 31 33 32 28
10 11 15 10 10 9 11 12 11 14 19 nan nan 24 27 28 24 28 36 42 43 44 45 44 48 48 47 44 37 27 nan nan nan nan nan nan nan nan nan nan nan nan nan nan nan nan nan nan nan nan 25 28 28 28 29 30 29 28 25 22 23 25 25 25 24 21 20 18 18 20 21 22 23 24 23 24 25 26 26 27 31 32 32 32 33 33 31
9 11 12 13 11 9 10 10 12 15 14 13 15 21 22 22 23 23 28 37 40 41 39 36 39 40 40 41 nan nan nan nan nan nan nan nan nan nan nan nan nan nan nan nan nan nan nan nan nan nan nan nan nan nan nan 28 27 28 30 29 26 24 24 23 23 22 22 22 23 24 25 26 27 28 26 26 27 27 29 30 31 32 31 31 32 33 31
6 7 8 7 7 7 10 9 8 10 10 10 12 14 18 18 20 21 23 27 31 31 29 24 25 26 27 nan nan nan nan nan nan nan nan nan nan nan nan nan nan nan nan nan nan nan nan nan nan nan nan nan nan nan nan nan nan 31 28 26 25 24 23 24 24 25 26 28 28 29 29 29 30 30 30 30 30 30 29 31 32 33 32 32 32 32 32
5 2 3 6 8 9 12 12 9 9 11 10 8 11 11 15 18 18 21 21 nan 24 23 nan 19 21 21 23 nan nan nan nan nan nan nan nan nan nan nan nan nan nan nan nan nan nan 33 nan nan nan nan nan nan nan nan nan nan nan 30 28 28 27 26 26 28 29 31 33 33 33 33 33 33 33 33 32 33 31 31 32 nan nan 33 33 34 33 32
6 8 6 7 10 13 14 15 12 12 11 11 12 12 12 10 13 15 18 18 nan nan nan nan nan nan 18 22 24 28 nan nan nan nan nan nan nan nan nan nan nan nan nan nan nan nan nan nan nan nan nan nan nan nan nan nan nan nan nan nan nan nan 30 30 31 33 35 36 37 37 37 36 36 35 35 35 35 34 nan 34 34 35 nan nan nan nan nan
9 4 4 7 8 10 13 14 14 15 15 12 12 13 10 9 12 15 15 16 15 16 nan nan nan nan nan 21 22 25 nan nan nan nan nan nan nan nan nan nan nan nan nan nan nan nan nan nan nan nan nan nan nan nan nan nan nan nan nan nan nan nan nan nan nan nan nan 38 38 39 39 38 37 37 36 37 37 nan nan nan nan nan nan nan nan nan nan
3 2 0 3 6 9 10 11 12 13 14 15 13 12 10 10 10 12 13 15 17 16 18 nan 20 18 18 20 20 nan nan nan nan nan nan nan nan nan nan nan nan nan nan nan nan nan nan nan nan nan nan nan nan nan nan nan nan nan nan nan nan nan nan nan nan nan nan nan nan 41 40 39 39 39 38 38 nan nan nan nan nan nan nan 38 nan nan nan
7 8 6 5 9 10 11 12 11 10 11 13 13 13 12 12 13 13 14 13 14 14 15 16 19 20 17 18 19 20 nan nan nan nan nan nan nan nan nan nan nan nan nan nan nan nan nan nan nan nan nan nan nan nan nan nan nan nan nan nan nan nan nan nan nan nan nan nan nan nan nan nan nan nan nan nan nan nan nan nan nan nan nan nan nan nan nan
8 5 3 5 7 5 6 7 7 8 9 11 12 12 12 12 12 13 15 13 13 13 13 14 16 18 16 16 18 18 nan nan nan nan nan nan nan nan nan nan nan nan nan nan nan nan nan nan nan nan nan nan nan nan nan nan nan nan nan nan nan nan nan nan nan nan nan nan nan nan nan nan nan nan nan nan nan nan nan nan nan nan nan nan nan nan nan
4 0 4 1 5 4 1 3 4 6 7 9 10 9 9 9 9 10 12 13 13 13 12 12 15 15 15 15 17 18 17 18 nan nan nan nan nan nan nan nan nan nan nan nan nan nan nan nan nan nan nan nan nan nan nan nan nan nan nan nan nan nan nan nan nan nan nan nan nan nan nan nan nan nan nan nan nan nan nan nan nan nan nan nan nan nan nan
8 6 5 nan 8 5 2 2 6 7 nan nan 9 7 7 8 8 9 10 10 12 11 12 13 14 15 15 15 17 17 16 17 20 22 nan nan nan nan nan nan nan nan nan nan nan nan nan nan nan nan nan nan nan nan nan nan nan nan nan nan nan nan nan nan nan nan nan nan nan nan nan nan nan nan nan nan nan nan nan nan nan nan nan nan nan nan nan
9 7 nan nan nan nan 4 nan nan nan nan nan nan nan nan nan nan nan 12 10 10 13 14 13 12 14 16 16 17 17 16 16 17 20 21 23 24 nan nan nan nan nan nan nan nan nan nan nan nan nan nan nan nan nan nan nan nan nan nan nan nan nan nan nan nan nan nan nan nan nan nan nan nan nan nan nan nan nan nan nan nan nan nan nan nan nan nan
16 11 nan nan nan nan nan nan nan nan nan nan nan nan 8 12 nan nan nan nan nan nan 18 19 20 18 20 18 17 18 19 18 18 21 22 23 24 25 nan nan nan nan nan nan nan nan nan nan nan nan nan nan nan nan nan nan nan nan nan nan nan nan nan nan nan nan nan nan nan nan nan nan nan nan nan nan nan nan nan nan nan nan nan nan nan nan nan
nan nan nan nan nan nan nan nan nan nan nan nan nan nan nan 12 17 nan nan nan nan nan nan nan 22 22 23 23 23 22 23 22 23 24 24 24 23 23 23 24 24 25 nan nan nan nan nan nan nan nan nan nan nan nan nan nan nan nan nan nan nan nan nan nan nan nan nan nan nan nan nan nan nan nan nan nan nan nan nan nan nan nan nan nan nan nan nan
nan nan nan nan nan nan nan nan nan nan nan nan nan nan nan nan nan nan nan nan nan nan nan nan nan nan nan nan nan nan nan 29 28 26 27 25 26 29 30 31 30 28 27 28 28 28 nan nan nan nan nan nan nan nan nan nan nan nan nan nan nan nan nan nan nan nan nan nan nan nan nan nan nan nan nan nan nan nan nan nan nan nan nan nan nan nan nan
14 13 nan nan nan nan nan nan nan nan nan nan nan nan nan nan nan nan nan nan nan nan nan nan nan nan nan nan nan 28 nan nan nan 28 27 26 27 28 30 32 31 32 33 31 30 30 31 32 nan nan nan nan nan nan nan nan nan nan nan nan nan nan nan nan nan nan nan nan nan nan nan nan nan nan nan nan nan nan nan nan nan nan nan nan nan nan nan
nan nan nan nan nan nan nan nan nan nan nan nan nan nan nan nan nan nan nan nan nan nan nan nan nan nan nan nan nan nan nan nan nan nan 28 28 27 27 28 30 31 nan 33 33 33 34 33 33 33 33 33 35 36 nan nan nan nan nan nan nan nan nan nan nan nan nan nan nan nan nan nan nan nan nan nan nan nan nan nan nan nan nan nan nan nan nan nan
nan nan nan nan nan nan nan nan nan nan nan nan nan nan nan nan nan nan nan nan nan nan nan nan nan nan nan nan nan nan nan nan nan nan nan nan nan nan 27 29 30 29 29 30 32 33 33 33 34 33 34 36 39 40 41 nan nan nan nan nan nan nan nan nan nan nan nan nan nan nan nan nan nan nan nan nan nan nan nan nan nan nan nan nan nan nan nan
nan nan nan nan nan nan nan nan nan nan nan nan nan nan nan nan nan nan nan nan nan nan nan nan nan nan nan nan nan nan nan nan nan nan nan nan nan nan nan nan 30 30 31 32 33 34 34 nan 33 33 37 39 38 38 39 nan nan nan nan nan nan nan nan nan nan nan nan nan nan nan nan nan nan nan nan nan nan nan nan nan nan nan nan nan nan nan nan
20 nan nan nan nan nan nan nan nan nan nan nan nan nan nan nan nan nan nan nan nan nan nan nan nan nan nan nan nan nan nan nan nan nan nan nan nan nan nan 34 34 35 35 35 35 36 37 36 34 nan 39 41 41 nan nan nan nan nan nan nan nan nan nan nan nan nan nan nan nan nan nan nan nan nan nan nan nan nan nan nan nan nan nan nan nan nan nan
nan nan nan nan nan nan nan nan nan nan nan nan nan nan nan nan nan nan nan nan nan nan nan nan nan nan nan nan nan nan nan nan nan nan nan nan nan nan nan nan nan 37 36 37 39 39 nan nan nan nan nan nan nan nan nan 48 nan nan nan nan nan nan nan nan nan nan nan nan nan nan nan nan nan nan nan nan nan nan nan nan nan nan nan nan nan nan nan
nan nan nan nan nan nan nan nan nan nan nan nan nan nan nan nan nan nan nan nan nan nan nan nan nan nan nan nan nan nan nan nan nan nan nan nan nan nan nan nan nan nan nan 40 39 39 nan nan nan 42 44 nan nan nan nan 48 49 nan 48 nan nan nan nan nan nan nan nan nan nan nan nan nan nan nan nan nan nan nan nan nan nan nan nan nan nan nan nan
nan nan nan nan nan nan nan nan nan nan nan nan nan nan nan nan nan nan nan nan nan nan nan nan nan nan nan nan nan nan nan nan nan nan nan nan nan nan nan nan nan nan nan nan 44 43 43 43 41 41 46 47 47 nan nan nan 50 50 nan nan nan nan nan nan nan nan nan nan nan nan nan nan nan nan nan nan nan nan nan nan nan nan nan nan nan nan nan
nan nan nan nan nan nan nan nan nan nan nan nan nan nan nan nan nan nan nan nan nan nan nan nan nan nan nan nan nan nan nan nan nan nan nan nan nan nan nan nan nan nan nan nan nan nan nan nan 45 45 47 48 48 47 nan 51 nan nan nan nan nan nan nan nan nan nan nan nan nan nan nan nan nan nan nan nan nan nan nan nan nan nan nan nan nan nan nan
nan nan nan nan nan nan nan nan nan nan nan nan nan nan nan nan nan nan nan nan nan nan nan nan nan nan nan nan nan nan nan nan nan nan nan nan nan nan nan nan nan nan nan nan nan nan nan nan nan 46 49 48 48 48 47 44 51 53 52 53 nan nan nan nan nan nan nan nan nan nan nan nan nan nan nan nan nan nan nan nan nan nan nan nan nan nan nan
nan nan nan nan nan nan nan nan nan nan nan nan nan nan nan nan nan nan nan nan nan nan nan nan nan nan nan nan nan nan nan nan nan nan nan nan nan nan nan nan nan nan nan nan nan nan nan nan nan nan nan nan nan nan nan 45 49 53 nan nan nan nan nan nan nan nan nan nan nan nan nan nan nan nan nan nan nan nan nan nan nan nan nan nan nan nan nan
nan nan nan nan nan nan nan nan nan nan nan nan nan nan nan nan nan nan nan nan nan nan nan nan nan nan nan nan nan nan nan nan nan nan nan nan nan nan nan nan nan nan 48 49 nan nan nan nan nan nan nan nan nan nan nan 46 46 51 nan nan nan nan nan nan nan nan nan nan nan nan nan nan nan nan nan nan nan nan nan nan nan nan nan nan nan nan nan
nan nan nan nan nan nan nan nan nan nan nan nan nan nan nan nan nan nan nan nan nan nan nan nan nan nan nan nan nan nan nan nan nan nan nan nan nan nan nan nan nan nan nan nan nan nan nan nan nan nan nan nan nan nan nan 44 46 49 48 nan nan nan nan nan nan nan nan nan nan nan nan nan nan nan nan nan nan nan nan nan nan nan nan nan nan nan nan
nan nan nan nan nan nan nan nan nan nan nan nan nan nan nan nan nan nan nan nan nan nan nan nan nan nan nan nan nan nan nan nan nan nan nan nan nan nan nan nan nan nan nan nan nan nan nan nan nan 44 43 43 43 nan nan nan 45 45 44 nan nan nan nan nan nan nan nan nan nan nan nan nan nan nan nan nan nan nan nan nan nan nan nan nan nan nan nan
nan nan nan nan nan nan nan nan nan nan nan nan nan nan nan nan nan nan nan nan nan nan nan nan nan nan nan nan nan nan nan nan nan nan nan nan nan nan nan nan nan nan 45 47 47 nan nan nan nan nan nan 38 39 36 38 43 42 42 44 46 47 48 49 49 nan nan nan nan nan nan nan nan nan nan nan nan nan nan nan nan nan nan nan nan nan nan nan
nan nan nan nan nan nan nan nan nan nan nan nan nan nan nan nan nan nan nan nan nan nan nan nan nan nan nan nan nan nan nan nan nan nan nan nan nan nan nan nan nan nan nan nan nan nan nan nan nan nan 35 40 nan 42 40 40 40 41 43 45 46 46 nan nan nan nan nan nan nan nan nan nan nan nan nan nan nan nan nan nan nan nan nan nan nan nan nan
nan nan nan nan nan nan nan nan nan nan nan nan nan nan nan nan nan nan nan nan nan nan nan nan nan nan nan nan nan nan nan nan nan nan nan nan nan nan nan nan nan nan nan nan nan nan nan nan nan nan nan nan nan nan 40 nan nan 41 nan nan nan nan nan nan nan nan nan nan nan nan nan nan nan nan nan nan nan nan nan nan nan nan nan nan nan nan nan
nan nan nan nan nan nan nan nan nan nan nan nan nan nan nan nan nan nan nan nan nan nan nan nan nan nan nan nan nan nan nan nan nan nan nan nan nan nan nan nan nan nan nan nan nan nan nan nan nan nan nan nan nan nan nan nan nan nan nan nan nan nan nan nan nan nan nan nan nan nan nan nan nan nan nan nan nan nan nan nan nan nan nan nan nan nan nan
nan nan nan nan nan nan nan nan nan nan nan nan nan nan nan nan nan nan nan nan nan nan nan nan nan nan nan nan nan nan nan nan nan nan nan nan nan nan nan nan nan nan nan nan nan nan nan nan nan nan nan nan nan nan nan nan nan nan nan nan nan nan nan nan nan nan nan nan nan nan nan nan nan nan nan nan nan nan nan nan nan nan nan nan nan nan nan
nan nan nan nan nan nan nan nan nan nan nan nan nan nan nan nan nan nan nan nan nan nan nan nan nan nan nan nan nan nan nan nan nan nan nan nan nan nan nan nan nan nan nan nan nan nan nan nan nan nan nan nan nan nan nan nan nan nan nan nan nan nan nan nan nan nan nan nan nan nan nan nan nan nan nan nan nan nan nan nan nan nan nan nan nan nan nan
nan nan nan nan nan nan nan nan nan nan nan nan nan nan nan nan nan nan nan nan nan nan nan nan nan nan nan nan nan nan nan nan nan nan nan nan nan nan nan nan nan nan nan nan nan nan nan nan nan nan nan nan nan nan nan nan nan nan nan nan nan nan nan nan nan nan nan nan nan nan nan nan nan nan nan nan nan nan nan nan nan nan nan nan nan nan nan
nan nan nan nan nan nan nan nan nan nan nan nan nan nan nan nan nan nan nan nan nan nan nan nan nan nan nan nan nan nan nan nan nan nan nan nan nan nan nan nan nan nan nan nan nan nan nan nan nan nan nan nan nan nan nan nan nan nan nan nan nan nan nan nan nan nan nan nan nan nan nan nan nan nan nan nan nan nan nan nan nan nan nan nan nan nan nan
nan nan nan nan nan nan nan nan nan nan nan nan nan nan nan nan nan nan nan nan nan nan nan nan nan nan nan nan nan nan nan nan nan nan nan nan nan nan nan nan nan nan nan nan nan nan nan nan nan nan nan nan nan nan nan nan nan nan nan nan nan nan nan nan nan nan nan nan nan nan nan nan nan nan nan nan nan nan nan nan nan nan nan nan nan nan nan
nan nan nan nan nan nan nan nan nan nan nan nan nan nan nan nan nan nan nan nan nan nan nan nan nan nan nan nan nan nan nan nan nan nan nan nan nan nan nan nan nan nan nan nan nan nan nan nan nan nan nan nan nan nan nan nan nan nan nan nan nan nan nan nan nan nan nan nan nan nan nan nan nan nan nan nan nan nan nan nan nan nan nan nan nan nan nan
Wind_Direction
nan nan nan nan 199 199 195 196 195 194 188 191 192 188 190 195 195 nan 211 219 218 204 205 203 204 210 220 219 221 217 217 225 230 233 235 235 238 240 240 242 247 245 238 234 229 225 224 217 215 224 225 224 222 222 221 215 212 219 226 237 234 230 228 229 228 226 221 217 221 229 227 238 240 238 236 239 243 245 247 247 246 244 242 244 243 239 239
nan nan 253 234 nan 196 199 199 197 194 195 195 195 192 191 198 199 199 211 227 226 218 209 210 213 212 220 220 216 213 213 214 218 228 232 236 244 251 253 259 259 252 249 245 244 244 240 234 227 229 228 231 230 231 231 227 220 216 213 216 225 220 216 214 214 221 227 230 227 228 225 235 240 243 242 240 240 241 246 252 254 252 252 253 254 251 246
227 232 248 nan 224 203 204 198 199 199 199 201 201 199 191 188 195 199 208 218 218 216 216 214 215 223 224 222 216 211 210 212 214 225 235 235 242 248 251 255 265 261 255 248 243 245 246 246 243 243 238 232 237 237 233 233 235 237 237 230 223 217 213 213 216 226 234 234 234 233 231 234 239 244 246 246 244 243 243 243 249 253 256 257 255 253 252
228 231 nan 253 242 nan nan 203 199 202 203 206 202 205 193 193 189 194 209 212 210 207 211 220 216 219 230 231 225 218 215 219 224 221 222 229 236 246 246 243 251 256 252 257 248 243 244 246 244 242 245 241 236 239 238 234 235 239 242 241 237 233 225 214 220 228 233 234 235 234 234 239 244 245 245 247 248 247 245 244 246 249 252 253 254 255 252
nan nan nan nan nan 221 nan 200 194 199 207 209 211 211 205 198 193 201 209 212 209 211 221 226 222 223 224 227 228 229 228 228 230 234 240 242 243 249 250 246 243 241 243 242 238 233 236 239 242 242 240 241 243 240 237 237 237 237 237 238 246 248 245 238 228 215 225 232 234 232 235 241 247 249 247 246 248 250 251 248 245 246 247 250 252 253 257
nan nan nan nan nan nan nan 201 194 199 209 212 215 209 205 202 203 209 212 215 216 221 229 237 236 229 227 227 228 228 230 236 243 241 236 238 237 230 234 241 244 248 243 237 234 235 235 232 227 229 235 237 231 225 228 232 237 240 238 230 237 249 248 243 237 228 224 231 230 225 226 235 242 247 250 251 250 251 253 252 252 248 243 241 242 246 251
nan nan nan nan nan 243 nan 209 197 209 214 217 219 213 209 208 207 209 211 211 218 227 231 241 246 240 231 227 230 232 231 234 242 250 247 246 244 240 240 239 240 242 249 249 241 238 239 239 235 231 225 226 229 224 220 225 230 238 245 248 243 242 242 237 233 232 231 235 238 239 243 248 248 248 250 252 251 252 254 258 259 258 256 250 245 243 244
nan nan nan nan nan 231 nan 222 nan 204 210 212 216 212 207 207 211 213 214 213 218 223 228 232 236 237 231 224 226 228 232 237 240 244 249 247 243 243 241 241 235 236 239 240 240 240 240 240 236 231 231 228 229 226 222 222 222 228 234 236 233 235 235 226 224 226 231 234 235 240 242 240 241 241 244 250 253 251 251 255 254 253 250 250 249 247 246
nan 229 nan 223 222 224 219 nan nan nan nan 207 218 217 206 204 208 212 215 215 218 223 218 220 228 227 230 228 215 214 220 227 234 239 239 240 242 241 243 247 244 231 223 229 238 242 244 244 238 231 229 231 233 232 228 227 230 231 227 219 217 219 219 216 216 217 220 228 233 235 239 243 246 245 234 237 242 247 251 252 256 256 253 249 247 246 249
238 234 nan nan nan 229 212 nan nan nan nan 220 225 223 212 207 208 214 216 218 222 227 224 225 232 238 233 230 214 209 215 222 234 238 243 247 245 244 245 241 236 234 234 235 235 235 236 235 232 230 233 237 238 237 233 230 231 229 229 222 213 209 213 213 216 217 216 219 228 231 239 245 251 252 247 240 238 242 249 252 254 254 255 253 251 249 247
nan nan nan nan nan 222 nan nan nan nan 220 227 227 222 215 212 212 216 221 223 226 227 232 234 232 244 251 nan nan 211 211 nan nan nan nan nan 247 245 nan 238 241 241 242 239 232 227 227 227 225 227 230 230 230 233 235 231 227 225 230 234 232 229 225 219 221 226 225 226 234 233 237 246 255 258 250 242 239 241 244 250 255 256 257 259 259 256 252
nan 230 nan nan 215 219 221 221 215 216 222 nan nan nan nan 222 218 223 226 229 233 235 237 244 243 nan 264 265 250 243 nan nan nan nan nan nan nan nan nan nan nan nan nan nan 229 231 233 231 232 237 239 238 237 nan 235 238 236 232 233 238 242 240 236 233 236 235 232 238 239 243 247 252 255 255 252 248 240 242 244 247 252 256 258 261 268 265 258
240 238 217 206 201 202 216 214 212 212 221 227 nan nan 234 241 234 233 233 233 237 241 244 nan 250 246 248 253 257 255 nan nan 245 nan nan nan nan nan nan nan nan nan nan nan nan nan nan nan nan 239 nan nan nan nan nan 244 243 236 234 247 253 252 252 250 248 248 247 250 254 250 251 253 254 255 256 255 252 248 247 249 249 252 258 260 262 260 259
255 249 245 218 199 195 207 198 225 227 231 nan nan 235 243 257 255 242 240 240 240 245 247 248 248 249 246 246 252 256 nan nan nan nan nan nan nan nan nan nan nan nan nan nan nan nan nan nan nan nan 239 243 240 235 234 237 235 232 243 256 259 258 258 259 259 257 257 257 257 258 256 255 254 254 254 257 259 258 257 258 259 260 261 262 262 262 261
233 227 230 216 209 196 199 191 208 222 231 224 236 247 244 250 259 254 243 243 242 249 252 249 249 249 248 252 nan nan nan nan nan nan nan nan nan nan nan nan nan nan nan nan nan nan nan nan nan nan nan nan nan nan nan 229 236 246 259 265 262 256 252 249 252 253 251 250 251 252 253 253 254 254 252 254 256 259 263 262 263 265 265 266 266 266 263
268 234 226 218 211 191 185 223 225 218 224 242 241 246 244 235 244 246 246 240 242 244 254 255 247 245 248 nan nan nan nan nan nan nan nan nan nan nan nan nan nan nan nan nan nan nan nan nan nan nan nan nan nan nan nan nan nan 255 258 258 256 252 249 249 248 248 248 247 245 245 247 248 250 252 252 252 253 252 255 260 262 263 262 264 264 265 264
265 270 227 209 207 209 199 220 233 231 232 234 244 252 251 248 233 236 248 248 nan 247 250 nan 250 244 240 243 nan nan nan nan nan nan nan nan nan nan nan nan nan nan nan nan nan nan 246 nan nan nan nan nan nan nan nan nan nan nan 254 251 250 250 250 249 249 248 247 247 247 246 245 245 246 246 247 248 249 248 253 257 nan nan 263 265 267 267 267
247 222 229 238 220 222 217 215 224 238 236 238 258 269 263 243 247 245 255 255 nan nan nan nan nan nan 251 246 239 240 nan nan nan nan nan nan nan nan nan nan nan nan nan nan nan nan nan nan nan nan nan nan nan nan nan nan nan nan nan nan nan nan 251 252 252 251 250 249 249 249 249 247 247 246 248 249 251 249 nan 253 258 261 nan nan nan nan nan
241 233 197 245 247 222 224 227 225 233 242 252 265 267 260 262 253 248 249 262 263 262 nan nan nan nan nan 249 242 243 nan nan nan nan nan nan nan nan nan nan nan nan nan nan nan nan nan nan nan nan nan nan nan nan nan nan nan nan nan nan nan nan nan nan nan nan nan 252 250 248 249 251 250 250 249 250 251 nan nan nan nan nan nan nan nan nan nan
268 333 116 235 232 227 224 229 230 229 236 240 245 255 258 256 248 250 255 256 252 256 263 nan 269 264 260 261 254 nan nan nan nan nan nan nan nan nan nan nan nan nan nan nan nan nan nan nan nan nan nan nan nan nan nan nan nan nan nan nan nan nan nan nan nan nan nan nan nan 251 249 250 252 252 251 252 nan nan nan nan nan nan nan 257 nan nan nan
228 217 198 214 215 212 212 217 217 233 244 246 238 238 244 243 242 238 236 243 251 251 261 261 265 263 261 264 262 257 nan nan nan nan nan nan nan nan nan nan nan nan nan nan nan nan nan nan nan nan nan nan nan nan nan nan nan nan nan nan nan nan nan nan nan nan nan nan nan nan nan nan nan nan nan nan nan nan nan nan nan nan nan nan nan nan nan
288 310 344 289 246 194 199 227 237 230 229 241 242 239 238 241 243 244 249 242 245 255 261 268 269 273 271 268 267 263 nan nan nan nan nan nan nan nan nan nan nan nan nan nan nan nan nan nan nan nan nan nan nan nan nan nan nan nan nan nan nan nan nan nan nan nan nan nan nan nan nan nan nan nan nan nan nan nan nan nan nan nan nan nan nan nan nan
316 297 344 254 266 253 194 265 234 240 234 239 244 244 250 250 258 261 258 255 250 251 247 255 269 268 271 271 267 266 264 264 nan nan nan nan nan nan nan nan nan nan nan nan nan nan nan nan nan nan nan nan nan nan nan nan nan nan nan nan nan nan nan nan nan nan nan nan nan nan nan nan nan nan nan nan nan nan nan nan nan nan nan nan nan nan nan
250 288 317 nan 291 302 164 223 256 256 nan nan 249 242 247 253 253 254 260 271 274 264 260 255 265 271 264 266 266 267 262 259 259 259 nan nan nan nan nan nan nan nan nan nan nan nan nan nan nan nan nan nan nan nan nan nan nan nan nan nan nan nan nan nan nan nan nan nan nan nan nan nan nan nan nan nan nan nan nan nan nan nan nan nan nan nan nan
291 281 nan nan nan nan 252 nan nan nan nan nan nan nan nan nan nan nan 267 262 269 280 274 266 260 267 277 273 274 274 270 264 265 266 262 262 266 nan nan nan nan nan nan nan nan nan nan nan nan nan nan nan nan nan nan nan nan nan nan nan nan nan nan nan nan nan nan nan nan nan nan nan nan nan nan nan nan nan nan nan nan nan nan nan nan nan nan
283 277 nan nan nan nan nan nan nan nan nan nan nan nan 273 280 nan nan nan nan nan nan 281 279 274 269 272 272 272 272 267 263 263 264 262 261 260 263 nan nan nan nan nan nan nan nan nan nan nan nan nan nan nan nan nan nan nan nan nan nan nan nan nan nan nan nan nan nan nan nan nan nan nan nan nan nan nan nan nan nan nan nan nan nan nan nan nan
nan nan nan nan nan nan nan nan nan nan nan nan nan nan nan 285 287 nan nan nan nan nan nan nan 284 282 275 274 274 272 272 269 264 262 263 261 261 262 262 262 267 272 nan nan nan nan nan nan nan nan nan nan nan nan nan nan nan nan nan nan nan nan nan nan nan nan nan nan nan nan nan nan nan nan nan nan nan nan nan nan nan nan nan nan nan nan nan
nan nan nan nan nan nan nan nan nan nan nan nan nan nan nan nan nan nan nan nan nan nan nan nan nan nan nan nan nan nan nan 264 263 259 256 258 260 260 259 257 257 261 267 271 272 271 nan nan nan nan nan nan nan nan nan nan nan nan nan nan nan nan nan nan nan nan nan nan nan nan nan nan nan nan nan nan nan nan nan nan nan nan nan nan nan nan nan
265 262 nan nan nan nan nan nan nan nan nan nan nan nan nan nan nan nan nan nan nan nan nan nan nan nan nan nan nan 277 nan nan nan 267 264 260 260 261 264 262 262 260 261 263 266 268 270 270 nan nan nan nan nan nan nan nan nan nan nan nan nan nan nan nan nan nan nan nan nan nan nan nan nan nan nan nan nan nan nan nan nan nan nan nan nan nan nan
nan nan nan nan nan nan nan nan nan nan nan nan nan nan nan nan nan nan nan nan nan nan nan nan nan nan nan nan nan nan nan nan nan nan 268 265 264 263 262 265 262 nan 261 260 261 263 265 265 267 268 266 265 268 nan nan nan nan nan nan nan nan nan nan nan nan nan nan nan nan nan nan nan nan nan nan nan nan nan nan nan nan nan nan nan nan nan nan
nan nan nan nan nan nan nan nan nan nan nan nan nan nan nan nan nan nan nan nan nan nan nan nan nan nan nan nan nan nan nan nan nan nan nan nan nan nan 268 271 269 266 263 262 263 263 263 265 266 267 264 265 268 269 267 nan nan nan nan nan nan nan nan nan nan nan nan nan nan nan nan nan nan nan nan nan nan nan nan nan nan nan nan nan nan nan nan
nan nan nan nan nan nan nan nan nan nan nan nan nan nan nan nan nan nan nan nan nan nan nan nan nan nan nan nan nan nan nan nan nan nan nan nan nan nan nan nan 277 276 273 271 270 267 266 nan 261 263 262 262 263 263 266 nan nan nan nan nan nan nan nan nan nan nan nan nan nan nan nan nan nan nan nan nan nan nan nan nan nan nan nan nan nan nan nan
275 nan nan nan nan nan nan nan nan nan nan nan nan nan nan nan nan nan nan nan nan nan nan nan nan nan nan nan nan nan nan nan nan nan nan nan nan nan nan 274 277 277 278 278 277 276 274 271 268 nan 265 263 264 nan nan nan nan nan nan nan nan nan nan nan nan nan nan nan nan nan nan nan nan nan nan nan nan nan nan nan nan nan nan nan nan nan nan
nan nan nan nan nan nan nan nan nan nan nan nan nan nan nan nan nan nan nan nan nan nan nan nan nan nan nan nan nan nan nan nan nan nan nan nan nan nan nan nan nan 279 279 278 278 278 nan nan nan nan nan nan nan nan nan 263 nan nan nan nan nan nan nan nan nan nan nan nan nan nan nan nan nan nan nan nan nan nan nan nan nan nan nan nan nan nan nan
nan nan nan nan nan nan nan nan nan nan nan nan nan nan nan nan nan nan nan nan nan nan nan nan nan nan nan nan nan nan nan nan nan nan nan nan nan nan nan nan nan nan nan 278 279 279 nan nan nan 274 273 nan nan nan nan 268 268 nan 263 nan nan nan nan nan nan nan nan nan nan nan nan nan nan nan nan nan nan nan nan nan nan nan nan nan nan nan nan
nan nan nan nan nan nan nan nan nan nan nan nan nan nan nan nan nan nan nan nan nan nan nan nan nan nan nan nan nan nan nan nan nan nan nan nan nan nan nan nan nan nan nan nan 278 278 279 279 278 277 277 277 274 nan nan nan 269 269 nan nan nan nan nan nan nan nan nan nan nan nan nan nan nan nan nan nan nan nan nan nan nan nan nan nan nan nan nan
nan nan nan nan nan nan nan nan nan nan nan nan nan nan nan nan nan nan nan nan nan nan nan nan nan nan nan nan nan nan nan nan nan nan nan nan nan nan nan nan nan nan nan nan nan nan nan nan 275 274 276 276 276 275 nan 276 nan nan nan nan nan nan nan nan nan nan nan nan nan nan nan nan nan nan nan nan nan nan nan nan nan nan nan nan nan nan nan
nan nan nan nan nan nan nan nan nan nan nan nan nan nan nan nan nan nan nan nan nan nan nan nan nan nan nan nan nan nan nan nan nan nan nan nan nan nan nan nan nan nan nan nan nan nan nan nan nan 276 278 279 278 277 276 277 276 272 271 272 nan nan nan nan nan nan nan nan nan nan nan nan nan nan nan nan nan nan nan nan nan nan nan nan nan nan nan
nan nan nan nan nan nan nan nan nan nan nan nan nan nan nan nan nan nan nan nan nan nan nan nan nan nan nan nan nan nan nan nan nan nan nan nan nan nan nan nan nan nan nan nan nan nan nan nan nan nan nan nan nan nan nan 275 278 274 nan nan nan nan nan nan nan nan nan nan nan nan nan nan nan nan nan nan nan nan nan nan nan nan nan nan nan nan nan
nan nan nan nan nan nan nan nan nan nan nan nan nan nan nan nan nan nan nan nan nan nan nan nan nan nan nan nan nan nan nan nan nan nan nan nan nan nan nan nan nan nan 283 283 nan nan nan nan nan nan nan nan nan nan nan 275 276 273 nan nan nan nan nan nan nan nan nan nan nan nan nan nan nan nan nan nan nan nan nan nan nan nan nan nan nan nan nan
nan nan nan nan nan nan nan nan nan nan nan nan nan nan nan nan nan nan nan nan nan nan nan nan nan nan nan nan nan nan nan nan nan nan nan nan nan nan nan nan nan nan nan nan nan nan nan nan nan nan nan nan nan nan nan 275 273 271 269 nan nan nan nan nan nan nan nan nan nan nan nan nan nan nan nan nan nan nan nan nan nan nan nan nan nan nan nan
nan nan nan nan nan nan nan nan nan nan nan nan nan nan nan nan nan nan nan nan nan nan nan nan nan nan nan nan nan nan nan nan nan nan nan nan nan nan nan nan nan nan nan nan nan nan nan nan nan 277 276 275 274 nan nan nan 271 269 267 nan nan nan nan nan nan nan nan nan nan nan nan nan nan nan nan nan nan nan nan nan nan nan nan nan nan nan nan
nan nan nan nan nan nan nan nan nan nan nan nan nan nan nan nan nan nan nan nan nan nan nan nan nan nan nan nan nan nan nan nan nan nan nan nan nan nan nan nan nan nan 286 285 283 nan nan nan nan nan nan 273 275 276 276 272 271 270 268 265 263 261 261 261 nan nan nan nan nan nan nan nan nan nan nan nan nan nan nan nan nan nan nan nan nan nan nan
nan nan nan nan nan nan nan nan nan nan nan nan nan nan nan nan nan nan nan nan nan nan nan nan nan nan nan nan nan nan nan nan nan nan nan nan nan nan nan nan nan nan nan nan nan nan nan nan nan nan 265 266 nan 265 265 266 267 268 268 268 266 265 nan nan nan nan nan nan nan nan nan nan nan nan nan nan nan nan nan nan nan nan nan nan nan nan nan
nan nan nan nan nan nan nan nan nan nan nan nan nan nan nan nan nan nan nan nan nan nan nan nan nan nan nan nan nan nan nan nan nan nan nan nan nan nan nan nan nan nan nan nan nan nan nan nan nan nan nan nan nan nan 266 nan nan 264 nan nan nan nan nan nan nan nan nan nan nan nan nan nan nan nan nan nan nan nan nan nan nan nan nan nan nan nan nan
nan nan nan nan nan nan nan nan nan nan nan nan nan nan nan nan nan nan nan nan nan nan nan nan nan nan nan nan nan nan nan nan nan nan nan nan nan nan nan nan nan nan nan nan nan nan nan nan nan nan nan nan nan nan nan nan nan nan nan nan nan nan nan nan nan nan nan nan nan nan nan nan nan nan nan nan nan nan nan nan nan nan nan nan nan nan nan
nan nan nan nan nan nan nan nan nan nan nan nan nan nan nan nan nan nan nan nan nan nan nan nan nan nan nan nan nan nan nan nan nan nan nan nan nan nan nan nan nan nan nan nan nan nan nan nan nan nan nan nan nan nan nan nan nan nan nan nan nan nan nan nan nan nan nan nan nan nan nan nan nan nan nan nan nan nan nan nan nan nan nan nan nan nan nan
nan nan nan nan nan nan nan nan nan nan nan nan nan nan nan nan nan nan nan nan nan nan nan nan nan nan nan nan nan nan nan nan nan nan nan nan nan nan nan nan nan nan nan nan nan nan nan nan nan nan nan nan nan nan nan nan nan nan nan nan nan nan nan nan nan nan nan nan nan nan nan nan nan nan nan nan nan nan nan nan nan nan nan nan nan nan nan
nan nan nan nan nan nan nan nan nan nan nan nan nan nan nan nan nan nan nan nan nan nan nan nan nan nan nan nan nan nan nan nan nan nan nan nan nan nan nan nan nan nan nan nan nan nan nan nan nan nan nan nan nan nan nan nan nan nan nan nan nan nan nan nan nan nan nan nan nan nan nan nan nan nan nan nan nan nan nan nan nan nan nan nan nan nan nan
nan nan nan nan nan nan nan nan nan nan nan nan nan nan nan nan nan nan nan nan nan nan nan nan nan nan nan nan nan nan nan nan nan nan nan nan nan nan nan nan nan nan nan nan nan nan nan nan nan nan nan nan nan nan nan nan nan nan nan nan nan nan nan nan nan nan nan nan nan nan nan nan nan nan nan nan nan nan nan nan nan nan nan nan nan nan nan
nan nan nan nan nan nan nan nan nan nan nan nan nan nan nan nan nan nan nan nan nan nan nan nan nan nan nan nan nan nan nan nan nan nan nan nan nan nan nan nan nan nan nan nan nan nan nan nan nan nan nan nan nan nan nan nan nan nan nan nan nan nan nan nan nan nan nan nan nan nan nan nan nan nan nan nan nan nan nan nan nan nan nan nan nan nan nan
nan nan nan nan nan nan nan nan nan nan nan nan nan nan nan nan nan nan nan nan nan nan nan nan nan nan nan nan nan nan nan nan nan nan nan nan nan nan nan nan nan nan nan nan nan nan nan nan nan nan nan nan nan nan nan nan nan nan nan nan nan nan nan nan nan nan nan nan nan nan nan nan nan nan nan nan nan nan nan nan nan nan nan nan nan nan nan